Location: Alma
(34.4195°N, 97.6123°W)
Time: 05:17:16
(UTC+00:00)

Hubble Space Telescope - Pass Details

Date: 27 May 2024
Orbit: 511 x 514 km, 28.5° (Epoch: 13 June)

Event Time Altitude Azimuth Distance (km) Brightness Sun altitude
Rises 03:40:15 0° 248° (WSW) 2,608 4.5 -21.5°
Reaches altitude 10° 03:42:38 10° 238° (WSW) 1,722 3.4 -21.8°
Enters shadow 03:43:56 18° 227° (SW) 1,296 2.7 -22.0°
